Location: Unspecified
(56.5167°N, 0.0000°E)
Time: 02:42:21
(UTC+01:00)

CZ-3 Stage 3 - Visible Passes

Search period start: 22 January 2019 00:00
Search period end: 01 February 2019 00:00
Orbit: 418 x 34775 km, 30.4° (Epoch: 18 January)

Date Brightness Start Highest point End Pass type
(mag) Time Alt. Az. Time Alt. Az. Time Alt. Az.
22 Jan 7.8 07:51:14 10° SSE 13:19:02 41° SE 16:44:22 10° SE visible
23 Jan 9.8 08:27:54 10° ENE 10:19:14 12° E 11:31:36 10° E visible
23 Jan 9.1 15:02:54 10° W 16:54:18 38° WSW 21:57:17 10° W visible
24 Jan 8.0 11:14:23 10° SW 13:20:28 58° S 20:08:05 10° SSW visible
25 Jan 7.7 07:40:54 10° S 13:06:43 40° SE 16:33:13 10° SE visible
26 Jan 9.7 08:38:18 10° ENE 10:08:11 11° E 11:10:47 10° E visible
26 Jan 9.0 14:52:26 10° W 16:42:09 38° WSW 21:43:09 10° W visible
27 Jan 7.9 11:04:10 10° SW 13:04:35 58° S 19:56:34 10° SSW visible
28 Jan 7.6 07:30:35 10° S 12:54:26 40° SE 16:22:01 10° SE visible
29 Jan 9.6 08:52:59 10° ENE 09:57:14 11° E 10:46:12 10° E visible
29 Jan 9.0 14:42:00 10° W 16:30:01 38° WSW 21:28:57 10° W visible
30 Jan 7.9 10:53:59 10° SW 12:48:44 57° S 19:45:00 10° SSW visible
31 Jan 7.5 07:20:19 10° S 12:42:08 39° SE 16:10:48 10° SE visible
